Location: Unspecified
(51.0950°N, 12.9690°E)
Time: 06:20:54
(UTC+00:00)

ATLAS 3B R/B - Pass Details

Date: 27 May 2022
Orbit: 976 x 1218 km, 63.8° (Epoch: 20 June)

Event Time Altitude Azimuth Distance (km) Brightness Sun altitude
Rises 20:10:14 0° 315° (NW) 3,922 8.2 -7.9°
Reaches altitude 10° 20:12:52 10° 317° (NW) 2,996 6.8 -8.2°
Maximum altitude 20:20:04 77° 44° (NE) 1,195 3.0 -8.9°
Enters shadow 20:27:27 11° 131° (SE) 3,074 4.5 -9.6°
